| time (UTC) | temp C | wind direction | speed KPH | gust KPH | rain 1hr cm | rain 24hr cm | rain mn cm | humidity % | barometer mb |
| 20260507031535 | 8 | 0 | 0.0 | 0.0 | 0.00 | 0.00 | 0.00 | 68 | 1018.7 |
| 20260507031023 | 8 | 0 | 0.0 | 0.0 | 0.00 | 0.00 | 0.00 | 66 | 1018.7 |
| 20260507030524 | 8 | 0 | 0.0 | 0.0 | 0.00 | 0.00 | 0.00 | 65 | 1018.7 |
| 20260507030037 | 8 | 0 | 0.0 | 0.0 | 0.00 | 0.00 | 0.00 | 64 | 1018.5 |
| 20260507025522 | 8 | 0 | 0.0 | 0.0 | 0.00 | 0.00 | 0.00 | 62 | 1018.6 |
| 20260507025023 | 9 | 0 | 0.0 | 0.0 | 0.00 | 0.00 | 0.00 | 62 | 1018.6 |
| 20260507024535 | 9 | 0 | 0.0 | 0.0 | 0.00 | 0.00 | 0.00 | 61 | 1018.6 |
| 20260507024024 | 9 | 0 | 0.0 | 0.0 | 0.00 | 0.00 | 0.00 | 60 | 1018.6 |
| 20260507023524 | 9 | 0 | 0.0 | 0.0 | 0.00 | 0.00 | 0.00 | 58 | 1018.5 |
| 20260507023042 | 9 | 0 | 0.0 | 0.0 | 0.00 | 0.00 | 0.00 | 60 | 1018.4 |
| 20260507022523 | 10 | 0 | 0.0 | 0.0 | 0.00 | 0.00 | 0.00 | 58 | 1018.4 |
| 20260507022022 | 10 | 0 | 0.0 | 0.0 | 0.00 | 0.00 | 0.00 | 58 | 1018.3 |
| 20260507021541 | 10 | 0 | 0.0 | 0.0 | 0.00 | 0.00 | 0.00 | 57 | 1018.2 |
| 20260507021022 | 10 | 0 | 0.0 | 0.0 | 0.00 | 0.00 | 0.00 | 55 | 1018.2 |
| 20260507020522 | 10 | 0 | 0.0 | 0.0 | 0.00 | 0.00 | 0.00 | 55 | 1018.1 |
| 20260507020036 | 10 | 0 | 0.0 | 0.0 | 0.00 | 0.00 | 0.00 | 54 | 1018.0 |
| 20260507015523 | 11 | 0 | 0.0 | 0.0 | 0.00 | 0.00 | 0.00 | 52 | 1018.0 |
| 20260507015027 | 11 | 0 | 0.0 | 0.0 | 0.00 | 0.00 | 0.00 | 50 | 1018.0 |
| 20260507014545 | 11 | 0 | 0.0 | 0.0 | 0.00 | 0.00 | 0.00 | 51 | 1018.0 |
| 20260507014023 | 11 | 0 | 0.0 | 0.0 | 0.00 | 0.00 | 0.00 | 50 | 1018.0 |
| 20260507013522 | 12 | 0 | 0.0 | 0.0 | 0.00 | 0.00 | 0.00 | 49 | 1017.9 |
| 20260507013036 | 12 | 0 | 0.0 | 0.0 | 0.00 | 0.00 | 0.00 | 48 | 1018.0 |
| 20260507012521 | 12 | 0 | 0.0 | 0.0 | 0.00 | 0.00 | 0.00 | 46 | 1017.9 |
| 20260507012024 | 13 | 0 | 0.0 | 0.0 | 0.00 | 0.00 | 0.00 | 45 | 1017.9 |
| 20260507011539 | 13 | 0 | 0.0 | 0.0 | 0.00 | 0.00 | 0.00 | 44 | 1017.9 |
| 20260507011023 | 13 | 0 | 0.0 | 0.0 | 0.00 | 0.00 | 0.00 | 43 | 1017.8 |
| 20260507010523 | 13 | 0 | 0.0 | 0.0 | 0.00 | 0.00 | 0.00 | 41 | 1017.8 |
| 20260507010051 | 14 | 0 | 0.0 | 0.0 | 0.00 | 0.00 | 0.00 | 39 | 1017.7 |
| 20260507005523 | 15 | 0 | 0.0 | 3.2 | 0.00 | 0.00 | 0.00 | 38 | 1017.8 |
| 20260507005024 | 15 | 0 | 0.0 | 3.2 | 0.00 | 0.00 | 0.00 | 37 | 1017.7 |
| 20260507004537 | 15 | 0 | 0.0 | 3.2 | 0.00 | 0.00 | 0.00 | 36 | 1017.7 |
| 20260507004023 | 15 | 0 | 0.0 | 12.9 | 0.00 | 0.00 | 0.00 | 36 | 1017.6 |
| 20260507003524 | 15 | 0 | 0.0 | 12.9 | 0.00 | 0.00 | 0.00 | 37 | 1017.7 |
| 20260507003035 | 15 | 0 | 0.0 | 3.2 | 0.00 | 0.00 | 0.00 | 37 | 1017.7 |
| 20260507002522 | 15 | 0 | 0.0 | 9.7 | 0.00 | 0.00 | 0.00 | 37 | 1017.6 |
| 20260507002028 | 15 | 0 | 1.6 | 11.3 | 0.00 | 0.00 | 0.00 | 36 | 1017.7 |
| 20260507001537 | 15 | 325 | 1.6 | 11.3 | 0.00 | 0.00 | 0.00 | 35 | 1017.7 |
| 20260507001021 | 15 | 286 | 1.6 | 9.7 | 0.00 | 0.00 | 0.00 | 35 | 1017.7 |
| 20260507000522 | 15 | 13 | 1.6 | 9.7 | 0.00 | 0.00 | 0.00 | 36 | 1017.7 |
| 20260507000036 | 15 | 5 | 1.6 | 8.0 | 0.00 | 0.00 | 0.00 | 35 | 1017.7 |
| 20260506235524 | 16 | 290 | 1.6 | 6.4 | 0.00 | 0.00 | 0.00 | 35 | 1017.7 |
| 20260506235021 | 15 | 0 | 0.0 | 6.4 | 0.00 | 0.00 | 0.00 | 36 | 1017.8 |
| 20260506234534 | 15 | 330 | 0.0 | 6.4 | 0.00 | 0.00 | 0.00 | 36 | 1017.9 |
| 20260506234023 | 15 | 330 | 1.6 | 8.0 | 0.00 | 0.00 | 0.00 | 35 | 1018.0 |
| 20260506233524 | 15 | 351 | 1.6 | 9.7 | 0.00 | 0.00 | 0.00 | 36 | 1018.1 |
| 20260506233037 | 15 | 343 | 3.2 | 9.7 | 0.00 | 0.00 | 0.00 | 36 | 1018.0 |
| 20260506232524 | 15 | 5 | 3.2 | 9.7 | 0.00 | 0.00 | 0.00 | 35 | 1018.0 |
| 20260506232024 | 15 | 330 | 1.6 | 12.9 | 0.00 | 0.00 | 0.00 | 36 | 1018.0 |
| 20260506231538 | 15 | 18 | 3.2 | 14.5 | 0.00 | 0.00 | 0.00 | 35 | 1018.0 |
| 20260506231024 | 15 | 306 | 1.6 | 24.1 | 0.00 | 0.00 | 0.00 | 37 | 1018.0 |
| 20260506230522 | 15 | 308 | 4.8 | 24.1 | 0.00 | 0.00 | 0.00 | 36 | 1018.1 |
| 20260506230052 | 15 | 315 | 4.8 | 14.5 | 0.00 | 0.00 | 0.00 | 36 | 1018.0 |
| 20260506225523 | 15 | 5 | 3.2 | 17.7 | 0.00 | 0.00 | 0.00 | 36 | 1018.1 |
| 20260506225022 | 15 | 20 | 3.2 | 17.7 | 0.00 | 0.00 | 0.00 | 38 | 1018.1 |
| 20260506224541 | 15 | 31 | 6.4 | 17.7 | 0.00 | 0.00 | 0.00 | 35 | 1018.0 |
| 20260506224023 | 15 | 294 | 4.8 | 16.1 | 0.00 | 0.00 | 0.00 | 36 | 1017.9 |
| 20260506223521 | 15 | 302 | 4.8 | 16.1 | 0.00 | 0.00 | 0.00 | 36 | 1018.0 |
| 20260506223035 | 15 | 304 | 3.2 | 14.5 | 0.00 | 0.00 | 0.00 | 35 | 1018.0 |
| 20260506222522 | 15 | 323 | 3.2 | 19.3 | 0.00 | 0.00 | 0.00 | 35 | 1017.8 |
| 20260506222023 | 15 | 275 | 4.8 | 22.5 | 0.00 | 0.00 | 0.00 | 36 | 1017.8 |
| 20260506221541 | 15 | 343 | 4.8 | 22.5 | 0.00 | 0.00 | 0.00 | 36 | 1018.0 |
| 20260506221021 | 15 | 22 | 1.6 | 11.3 | 0.00 | 0.00 | 0.00 | 37 | 1017.9 |
| 20260506220523 | 15 | 290 | 1.6 | 14.5 | 0.00 | 0.00 | 0.00 | 36 | 1018.0 |
| 20260506220050 | 15 | 299 | 4.8 | 14.5 | 0.00 | 0.00 | 0.00 | 37 | 1018.0 |
| 20260506215526 | 15 | 294 | 3.2 | 12.9 | 0.00 | 0.00 | 0.00 | 37 | 1018.0 |
| 20260506215024 | 15 | 321 | 1.6 | 11.3 | 0.00 | 0.00 | 0.00 | 37 | 1018.0 |
| 20260506214538 | 15 | 283 | 3.2 | 19.3 | 0.00 | 0.00 | 0.00 | 35 | 1018.0 |
| 20260506214022 | 15 | 296 | 4.8 | 19.3 | 0.00 | 0.00 | 0.00 | 36 | 1018.0 |
| 20260506213524 | 15 | 39 | 6.4 | 19.3 | 0.00 | 0.00 | 0.00 | 37 | 1018.1 |
| 20260506213039 | 15 | 18 | 8.0 | 16.1 | 0.00 | 0.00 | 0.00 | 34 | 1018.1 |
| 20260506212523 | 15 | 0 | 3.2 | 17.7 | 0.00 | 0.00 | 0.00 | 35 | 1018.2 |
| 20260506212025 | 15 | 317 | 4.8 | 17.7 | 0.00 | 0.00 | 0.00 | 37 | 1018.3 |
| 20260506211536 | 15 | 352 | 6.4 | 24.1 | 0.00 | 0.00 | 0.00 | 35 | 1018.3 |
| 20260506211024 | 15 | 300 | 4.8 | 24.1 | 0.00 | 0.00 | 0.00 | 37 | 1018.4 |
| 20260506210521 | 15 | 304 | 3.2 | 17.7 | 0.00 | 0.00 | 0.00 | 36 | 1018.3 |
| 20260506210052 | 15 | 292 | 8.0 | 17.7 | 0.00 | 0.00 | 0.00 | 37 | 1018.4 |
| 20260506205523 | 16 | 19 | 1.6 | 19.3 | 0.00 | 0.00 | 0.00 | 38 | 1018.5 |
| 20260506205023 | 15 | 18 | 4.8 | 19.3 | 0.00 | 0.00 | 0.00 | 38 | 1018.6 |
| 20260506204538 | 15 | 69 | 6.4 | 19.3 | 0.00 | 0.00 | 0.00 | 36 | 1018.6 |
| 20260506204023 | 15 | 348 | 3.2 | 20.9 | 0.00 | 0.00 | 0.00 | 39 | 1018.7 |
| 20260506203524 | 15 | 0 | 4.8 | 20.9 | 0.00 | 0.00 | 0.00 | 36 | 1018.8 |
| 20260506203036 | 15 | 34 | 4.8 | 16.1 | 0.00 | 0.00 | 0.00 | 36 | 1019.0 |
| 20260506202524 | 15 | 298 | 6.4 | 24.1 | 0.00 | 0.00 | 0.00 | 36 | 1018.9 |
| 20260506202024 | 15 | 355 | 8.0 | 24.1 | 0.00 | 0.00 | 0.00 | 37 | 1019.1 |
| 20260506201542 | 15 | 344 | 6.4 | 14.5 | 0.00 | 0.00 | 0.00 | 35 | 1019.1 |
| 20260506201024 | 15 | 0 | 3.2 | 14.5 | 0.00 | 0.00 | 0.00 | 38 | 1019.1 |
| 20260506200523 | 15 | 33 | 4.8 | 14.5 | 0.00 | 0.00 | 0.00 | 36 | 1019.1 |
| 20260506200037 | 14 | 313 | 1.6 | 14.5 | 0.00 | 0.00 | 0.00 | 37 | 1019.1 |
| 20260506195524 | 14 | 24 | 4.8 | 17.7 | 0.00 | 0.00 | 0.00 | 35 | 1019.2 |
| 20260506195023 | 14 | 343 | 6.4 | 17.7 | 0.00 | 0.00 | 0.00 | 37 | 1019.2 |
| 20260506194535 | 15 | 5 | 6.4 | 17.7 | 0.00 | 0.00 | 0.00 | 36 | 1019.2 |
| 20260506194027 | 15 | 314 | 3.2 | 12.9 | 0.00 | 0.00 | 0.00 | 37 | 1019.2 |
| 20260506193523 | 14 | 56 | 3.2 | 20.9 | 0.00 | 0.00 | 0.00 | 36 | 1019.2 |
| 20260506193035 | 14 | 26 | 8.0 | 20.9 | 0.00 | 0.00 | 0.00 | 37 | 1019.3 |
| 20260506192524 | 14 | 348 | 3.2 | 17.7 | 0.00 | 0.00 | 0.00 | 35 | 1019.2 |
| 20260506192028 | 14 | 5 | 3.2 | 17.7 | 0.00 | 0.00 | 0.00 | 38 | 1019.2 |
| 20260506191535 | 14 | 352 | 3.2 | 12.9 | 0.00 | 0.00 | 0.00 | 36 | 1019.3 |
| 20260506191025 | 14 | 0 | 1.6 | 14.5 | 0.00 | 0.00 | 0.00 | 35 | 1019.3 |
| 20260506190522 | 13 | 0 | 3.2 | 16.1 | 0.00 | 0.00 | 0.00 | 37 | 1019.3 |
| 20260506190036 | 13 | 303 | 3.2 | 16.1 | 0.00 | 0.00 | 0.00 | 37 | 1019.4 |
| 20260506185524 | 13 | 344 | 6.4 | 19.3 | 0.00 | 0.03 | 0.00 | 35 | 1019.3 |
| 20260506185024 | 13 | 36 | 6.4 | 19.3 | 0.00 | 0.03 | 0.00 | 35 | 1019.3 |
| 20260506184542 | 14 | 37 | 6.4 | 19.3 | 0.00 | 0.03 | 0.00 | 37 | 1019.4 |
| 20260506184025 | 13 | 59 | 3.2 | 16.1 | 0.00 | 0.03 | 0.00 | 35 | 1019.4 |
| 20260506183524 | 13 | 340 | 4.8 | 20.9 | 0.00 | 0.03 | 0.00 | 38 | 1019.5 |
| 20260506183039 | 13 | 49 | 6.4 | 20.9 | 0.00 | 0.03 | 0.00 | 37 | 1019.6 |
| 20260506182522 | 13 | 43 | 8.0 | 19.3 | 0.00 | 0.03 | 0.00 | 36 | 1019.6 |
| 20260506182024 | 13 | 284 | 1.6 | 12.9 | 0.00 | 0.03 | 0.00 | 37 | 1019.7 |
| 20260506181538 | 13 | 0 | 4.8 | 12.9 | 0.00 | 0.03 | 0.00 | 36 | 1019.7 |
| 20260506181024 | 13 | 322 | 3.2 | 14.5 | 0.00 | 0.03 | 0.00 | 37 | 1019.8 |
| 20260506180524 | 13 | 336 | 1.6 | 14.5 | 0.00 | 0.03 | 0.00 | 42 | 1019.8 |
| 20260506180040 | 13 | 0 | 1.6 | 16.1 | 0.00 | 0.03 | 0.00 | 37 | 1019.8 |
| 20260506175523 | 13 | 300 | 3.2 | 16.1 | 0.00 | 0.15 | 0.00 | 44 | 1019.9 |
| 20260506175023 | 13 | 344 | 4.8 | 14.5 | 0.00 | 0.15 | 0.00 | 39 | 1020.0 |
| 20260506174537 | 13 | 265 | 1.6 | 6.4 | 0.00 | 0.15 | 0.00 | 40 | 1019.9 |
| 20260506174023 | 12 | 0 | 1.6 | 17.7 | 0.00 | 0.15 | 0.00 | 40 | 1019.9 |
| 20260506173520 | 12 | 0 | 6.4 | 17.7 | 0.00 | 0.15 | 0.00 | 40 | 1019.9 |
| 20260506173041 | 12 | 306 | 3.2 | 14.5 | 0.00 | 0.15 | 0.00 | 42 | 1020.0 |
| 20260506172523 | 12 | 273 | 1.6 | 14.5 | 0.00 | 0.15 | 0.00 | 39 | 1020.0 |
| 20260506172025 | 12 | 287 | 3.2 | 14.5 | 0.00 | 0.15 | 0.00 | 39 | 1020.0 |
| 20260506171550 | 12 | 0 | 1.6 | 19.3 | 0.00 | 0.15 | 0.00 | 39 | 1020.1 |
| 20260506171023 | 12 | 12 | 3.2 | 19.3 | 0.00 | 0.15 | 0.00 | 40 | 1020.1 |
| 20260506170526 | 12 | 12 | 4.8 | 16.1 | 0.00 | 0.15 | 0.00 | 39 | 1020.1 |
| 20260506170043 | 12 | 310 | 6.4 | 16.1 | 0.00 | 0.15 | 0.00 | 39 | 1020.1 |
| 20260506165524 | 12 | 16 | 4.8 | 20.9 | 0.00 | 0.20 | 0.00 | 39 | 1020.2 |
| 20260506165024 | 12 | 360 | 8.0 | 20.9 | 0.00 | 0.20 | 0.00 | 39 | 1020.2 |
| 20260506164535 | 12 | 34 | 3.2 | 22.5 | 0.00 | 0.20 | 0.00 | 39 | 1020.1 |
| 20260506164023 | 13 | 316 | 4.8 | 22.5 | 0.00 | 0.20 | 0.00 | 40 | 1020.1 |
| 20260506163523 | 13 | 40 | 8.0 | 22.5 | 0.00 | 0.20 | 0.00 | 38 | 1020.0 |
| 20260506163036 | 12 | 319 | 3.2 | 14.5 | 0.00 | 0.20 | 0.00 | 44 | 1019.9 |
| 20260506162525 | 12 | 0 | 4.8 | 16.1 | 0.00 | 0.20 | 0.00 | 43 | 1020.0 |
| 20260506162023 | 12 | 48 | 6.4 | 16.1 | 0.00 | 0.20 | 0.00 | 40 | 1020.0 |
| 20260506161537 | 12 | 0 | 3.2 | 16.1 | 0.00 | 0.20 | 0.00 | 41 | 1020.0 |
| 20260506161023 | 12 | 330 | 4.8 | 16.1 | 0.00 | 0.20 | 0.00 | 40 | 1019.8 |
| 20260506160521 | 12 | 49 | 6.4 | 17.7 | 0.00 | 0.20 | 0.00 | 43 | 1020.0 |
| 20260506160045 | 12 | 24 | 4.8 | 17.7 | 0.00 | 0.20 | 0.00 | 40 | 1019.8 |
| 20260506155524 | 12 | 48 | 6.4 | 17.7 | 0.00 | 0.25 | 0.00 | 41 | 1019.8 |
| 20260506155022 | 12 | 59 | 4.8 | 17.7 | 0.00 | 0.25 | 0.00 | 41 | 1019.6 |
| 20260506154539 | 12 | 307 | 4.8 | 17.7 | 0.00 | 0.25 | 0.00 | 48 | 1019.5 |
| 20260506154027 | 12 | 36 | 4.8 | 14.5 | 0.00 | 0.25 | 0.00 | 47 | 1019.5 |
| 20260506153524 | 12 | 5 | 0.0 | 11.3 | 0.00 | 0.25 | 0.00 | 50 | 1019.4 |
| 20260506153035 | 12 | 25 | 3.2 | 14.5 | 0.00 | 0.25 | 0.00 | 50 | 1019.5 |
| 20260506152523 | 12 | 289 | 1.6 | 14.5 | 0.00 | 0.25 | 0.00 | 53 | 1019.4 |
| 20260506152024 | 11 | 25 | 3.2 | 14.5 | 0.00 | 0.25 | 0.00 | 54 | 1019.4 |
| 20260506151540 | 11 | 0 | 3.2 | 14.5 | 0.00 | 0.25 | 0.00 | 54 | 1019.5 |
| 20260506151021 | 11 | 26 | 1.6 | 14.5 | 0.00 | 0.25 | 0.00 | 52 | 1019.4 |
| 20260506150522 | 11 | 314 | 0.0 | 11.3 | 0.00 | 0.25 | 0.00 | 54 | 1019.4 |
| 20260506150035 | 11 | 321 | 1.6 | 14.5 | 0.00 | 0.25 | 0.00 | 54 | 1019.4 |
| 20260506145523 | 11 | 85 | 4.8 | 14.5 | 0.00 | 0.36 | 0.00 | 52 | 1019.3 |
| 20260506145022 | 11 | 327 | 0.0 | 12.9 | 0.00 | 0.36 | 0.00 | 53 | 1019.4 |
| 20260506144552 | 11 | 355 | 4.8 | 12.9 | 0.00 | 0.36 | 0.00 | 54 | 1019.4 |
| 20260506144023 | 11 | 0 | 1.6 | 16.1 | 0.00 | 0.36 | 0.00 | 57 | 1019.5 |
| 20260506143521 | 11 | 342 | 1.6 | 16.1 | 0.00 | 0.36 | 0.00 | 60 | 1019.7 |
| 20260506143036 | 10 | 293 | 1.6 | 12.9 | 0.00 | 0.36 | 0.00 | 58 | 1019.6 |
| 20260506142525 | 10 | 0 | 0.0 | 12.9 | 0.00 | 0.36 | 0.00 | 58 | 1019.6 |
| 20260506142024 | 10 | 0 | 3.2 | 11.3 | 0.00 | 0.36 | 0.00 | 60 | 1019.7 |
| 20260506141537 | 10 | 0 | 0.0 | 14.5 | 0.00 | 0.36 | 0.00 | 65 | 1019.6 |
| 20260506141024 | 10 | 275 | 1.6 | 14.5 | 0.00 | 0.36 | 0.00 | 67 | 1019.6 |
| 20260506140521 | 10 | 0 | 1.6 | 11.3 | 0.00 | 0.36 | 0.00 | 68 | 1019.4 |
| 20260506140037 | 9 | 276 | 1.6 | 14.5 | 0.00 | 0.36 | 0.00 | 67 | 1019.4 |
| 20260506135526 | 9 | 321 | 3.2 | 14.5 | 0.00 | 0.38 | 0.00 | 68 | 1019.3 |
| 20260506135024 | 9 | 0 | 3.2 | 14.5 | 0.00 | 0.38 | 0.00 | 68 | 1019.2 |
| 20260506134535 | 9 | 304 | 0.0 | 9.7 | 0.00 | 0.38 | 0.00 | 71 | 1019.0 |
| 20260506134025 | 9 | 0 | 1.6 | 11.3 | 0.00 | 0.38 | 0.00 | 69 | 1019.2 |
| 20260506133523 | 9 | 302 | 1.6 | 11.3 | 0.00 | 0.38 | 0.00 | 69 | 1018.9 |
| 20260506133036 | 9 | 283 | 3.2 | 11.3 | 0.00 | 0.38 | 0.00 | 70 | 1018.9 |
| 20260506132528 | 9 | 0 | 0.0 | 6.4 | 0.00 | 0.38 | 0.00 | 71 | 1018.9 |
| 20260506132023 | 9 | 0 | 0.0 | 6.4 | 0.00 | 0.38 | 0.00 | 72 | 1018.7 |
| 20260506131543 | 8 | 0 | 0.0 | 4.8 | 0.00 | 0.38 | 0.00 | 72 | 1018.7 |
| 20260506131027 | 8 | 0 | 0.0 | 4.8 | 0.00 | 0.38 | 0.00 | 72 | 1018.8 |
| 20260506130524 | 8 | 0 | 0.0 | 0.0 | 0.00 | 0.38 | 0.00 | 72 | 1018.5 |
| 20260506130037 | 8 | 0 | 0.0 | 0.0 | 0.00 | 0.38 | 0.00 | 71 | 1018.5 |
| 20260506125523 | 8 | 0 | 0.0 | 0.0 | 0.00 | 0.56 | 0.00 | 72 | 1018.5 |
| 20260506125023 | 8 | 0 | 0.0 | 0.0 | 0.00 | 0.56 | 0.00 | 73 | 1018.2 |
| 20260506124537 | 8 | 0 | 0.0 | 0.0 | 0.00 | 0.56 | 0.00 | 75 | 1018.2 |
| 20260506124026 | 7 | 0 | 0.0 | 0.0 | 0.00 | 0.56 | 0.00 | 76 | 1018.1 |
| 20260506123523 | 7 | 0 | 0.0 | 0.0 | 0.00 | 0.56 | 0.00 | 77 | 1018.1 |
| 20260506123036 | 7 | 0 | 0.0 | 0.0 | 0.00 | 0.56 | 0.00 | 78 | 1018.0 |
| 20260506122523 | 7 | 0 | 0.0 | 0.0 | 0.00 | 0.56 | 0.00 | 80 | 1018.0 |
| 20260506122026 | 7 | 0 | 0.0 | 0.0 | 0.00 | 0.56 | 0.00 | 81 | 1017.7 |
| 20260506121539 | 7 | 0 | 0.0 | 0.0 | 0.00 | 0.56 | 0.00 | 81 | 1017.5 |
| 20260506121024 | 6 | 0 | 0.0 | 0.0 | 0.00 | 0.56 | 0.00 | 81 | 1017.4 |
| 20260506120527 | 6 | 0 | 0.0 | 0.0 | 0.00 | 0.56 | 0.00 | 80 | 1017.2 |
| 20260506120035 | 6 | 0 | 0.0 | 0.0 | 0.00 | 0.56 | 0.00 | 80 | 1017.2 |
| 20260506115523 | 7 | 0 | 0.0 | 0.0 | 0.00 | 0.58 | 0.00 | 79 | 1017.2 |
| 20260506115023 | 7 | 0 | 0.0 | 0.0 | 0.00 | 0.58 | 0.00 | 78 | 1017.0 |
| 20260506114541 | 7 | 0 | 0.0 | 0.0 | 0.00 | 0.58 | 0.00 | 77 | 1016.9 |
| 20260506114023 | 7 | 0 | 0.0 | 0.0 | 0.00 | 0.58 | 0.00 | 75 | 1016.6 |
| 20260506113525 | 7 | 0 | 0.0 | 0.0 | 0.00 | 0.58 | 0.00 | 74 | 1016.6 |
| 20260506113035 | 7 | 0 | 0.0 | 0.0 | 0.00 | 0.58 | 0.00 | 72 | 1016.5 |
| 20260506112523 | 7 | 0 | 0.0 | 0.0 | 0.00 | 0.58 | 0.00 | 71 | 1016.5 |
| 20260506112026 | 7 | 0 | 0.0 | 0.0 | 0.00 | 0.58 | 0.00 | 70 | 1016.5 |
| 20260506111536 | 8 | 0 | 0.0 | 0.0 | 0.00 | 0.58 | 0.00 | 70 | 1016.6 |
| 20260506111026 | 8 | 0 | 0.0 | 0.0 | 0.00 | 0.58 | 0.00 | 70 | 1016.7 |
| 20260506110526 | 8 | 0 | 0.0 | 8.0 | 0.00 | 0.58 | 0.00 | 71 | 1016.9 |
| 20260506110039 | 8 | 0 | 0.0 | 12.9 | 0.00 | 0.58 | 0.00 | 72 | 1017.0 |
| 20260506105527 | 7 | 0 | 0.0 | 12.9 | 0.00 | 0.69 | 0.00 | 76 | 1017.2 |
| 20260506105025 | 7 | 0 | 0.0 | 3.2 | 0.00 | 0.69 | 0.00 | 81 | 1017.3 |
| 20260506104540 | 7 | 0 | 0.0 | 0.0 | 0.00 | 0.69 | 0.00 | 82 | 1017.3 |
| 20260506104027 | 7 | 0 | 0.0 | 0.0 | 0.00 | 0.69 | 0.00 | 82 | 1017.3 |
| 20260506103525 | 7 | 0 | 0.0 | 11.3 | 0.00 | 0.69 | 0.00 | 83 | 1017.3 |
| 20260506103039 | 7 | 0 | 0.0 | 11.3 | 0.00 | 0.69 | 0.00 | 84 | 1017.5 |
| 20260506102525 | 7 | 260 | 0.0 | 14.5 | 0.00 | 0.69 | 0.00 | 85 | 1017.5 |
| 20260506102026 | 7 | 0 | 0.0 | 14.5 | 0.00 | 0.69 | 0.00 | 86 | 1017.5 |
| 20260506101537 | 7 | 289 | 0.0 | 9.7 | 0.00 | 0.69 | 0.00 | 85 | 1017.7 |
| 20260506101025 | 7 | 305 | 0.0 | 11.3 | 0.00 | 0.69 | 0.00 | 86 | 1017.8 |
| 20260506100526 | 7 | 292 | 1.6 | 11.3 | 0.00 | 0.69 | 0.00 | 86 | 1017.8 |
| 20260506100039 | 7 | 0 | 0.0 | 12.9 | 0.00 | 0.69 | 0.00 | 86 | 1017.7 |
| 20260506095525 | 7 | 278 | 1.6 | 12.9 | 0.00 | 0.69 | 0.00 | 86 | 1017.7 |
| 20260506095024 | 7 | 0 | 1.6 | 11.3 | 0.00 | 0.69 | 0.00 | 86 | 1017.5 |
| 20260506094540 | 7 | 0 | 0.0 | 3.2 | 0.00 | 0.69 | 0.00 | 87 | 1017.2 |
| 20260506094025 | 7 | 0 | 0.0 | 3.2 | 0.00 | 0.69 | 0.00 | 87 | 1017.0 |
| 20260506093525 | 7 | 0 | 0.0 | 1.6 | 0.00 | 0.69 | 0.00 | 87 | 1016.6 |
| 20260506093035 | 7 | 0 | 0.0 | 0.0 | 0.00 | 0.69 | 0.00 | 87 | 1016.4 |
| 20260506092526 | 7 | 0 | 0.0 | 0.0 | 0.00 | 0.69 | 0.00 | 87 | 1016.2 |
| 20260506092026 | 7 | 0 | 0.0 | 0.0 | 0.00 | 0.69 | 0.00 | 87 | 1016.2 |
| 20260506091537 | 7 | 0 | 0.0 | 0.0 | 0.00 | 0.69 | 0.00 | 87 | 1016.0 |
| 20260506091025 | 7 | 0 | 0.0 | 0.0 | 0.00 | 0.69 | 0.00 | 87 | 1016.0 |
| 20260506090527 | 7 | 0 | 0.0 | 0.0 | 0.00 | 0.69 | 0.00 | 86 | 1015.9 |
| 20260506090036 | 7 | 0 | 0.0 | 0.0 | 0.00 | 0.69 | 0.00 | 86 | 1016.2 |
| 20260506085526 | 7 | 0 | 0.0 | 0.0 | 0.00 | 0.69 | 0.00 | 86 | 1016.0 |
| 20260506085025 | 7 | 0 | 0.0 | 0.0 | 0.00 | 0.69 | 0.00 | 86 | 1015.8 |
| 20260506084540 | 7 | 0 | 0.0 | 0.0 | 0.00 | 0.69 | 0.00 | 86 | 1015.8 |
| 20260506084023 | 7 | 0 | 0.0 | 0.0 | 0.00 | 0.69 | 0.00 | 86 | 1016.0 |
| 20260506083525 | 7 | 0 | 0.0 | 0.0 | 0.00 | 0.69 | 0.00 | 86 | 1016.0 |
| 20260506083039 | 7 | 0 | 0.0 | 0.0 | 0.00 | 0.69 | 0.00 | 86 | 1016.1 |
| 20260506082523 | 7 | 0 | 0.0 | 0.0 | 0.00 | 0.69 | 0.00 | 86 | 1016.1 |
| 20260506082023 | 7 | 0 | 0.0 | 0.0 | 0.00 | 0.69 | 0.00 | 85 | 1016.1 |
| 20260506081536 | 7 | 0 | 0.0 | 0.0 | 0.00 | 0.69 | 0.00 | 85 | 1016.1 |
| 20260506081023 | 7 | 0 | 0.0 | 0.0 | 0.00 | 0.69 | 0.00 | 85 | 1016.2 |
| 20260506080522 | 7 | 0 | 0.0 | 0.0 | 0.00 | 0.69 | 0.00 | 85 | 1016.1 |
| 20260506073524 | 7 | 0 | 0.0 | 0.0 | 0.00 | 0.86 | 0.00 | 82 | 1015.4 |
| 20260506073037 | 7 | 0 | 0.0 | 0.0 | 0.00 | 0.86 | 0.00 | 82 | 1015.3 |
| 20260506072523 | 7 | 0 | 0.0 | 0.0 | 0.00 | 0.86 | 0.00 | 82 | 1015.2 |
| 20260506072023 | 7 | 0 | 0.0 | 0.0 | 0.00 | 0.86 | 0.00 | 82 | 1015.4 |
| 20260506071535 | 7 | 0 | 0.0 | 0.0 | 0.00 | 0.86 | 0.00 | 81 | 1015.3 |
| 20260506071024 | 7 | 0 | 0.0 | 4.8 | 0.00 | 0.86 | 0.00 | 81 | 1015.3 |
| 20260506070523 | 7 | 0 | 0.0 | 4.8 | 0.00 | 0.86 | 0.00 | 81 | 1015.4 |
| 20260506062024 | 7 | 0 | 0.0 | 8.0 | 0.00 | 1.09 | 0.00 | 80 | 1015.7 |
| 20260506061535 | 7 | 0 | 0.0 | 8.0 | 0.00 | 1.09 | 0.00 | 79 | 1015.9 |
| 20260506061022 | 7 | 55 | 1.6 | 8.0 | 0.00 | 1.09 | 0.00 | 79 | 1015.9 |
| 20260506060524 | 7 | 27 | 1.6 | 9.7 | 0.00 | 1.09 | 0.00 | 78 | 1016.0 |
| 20260506051024 | 8 | 5 | 3.2 | 17.7 | 0.00 | 1.19 | 0.00 | 76 | 1016.2 |
| 20260506050526 | 8 | 0 | 3.2 | 17.7 | 0.00 | 1.19 | 0.00 | 75 | 1016.3 |
| 20260506045024 | 8 | 0 | 0.0 | 8.0 | 0.00 | 2.01 | 1.19 | 73 | 1016.1 |
| 20260506044544 | 8 | 0 | 0.0 | 12.9 | 0.00 | 2.01 | 1.19 | 72 | 1016.1 |
| 20260506044025 | 8 | 5 | 0.0 | 17.7 | 0.00 | 2.01 | 1.19 | 70 | 1016.1 |
| 20260506043525 | 9 | 0 | 3.2 | 17.7 | 0.00 | 2.01 | 1.19 | 69 | 1016.1 |
| 20260506043035 | 9 | 355 | 4.8 | 17.7 | 0.00 | 2.01 | 1.19 | 67 | 1016.1 |
| 20260506042528 | 10 | 0 | 6.4 | 19.3 | 0.00 | 2.01 | 1.19 | 67 | 1016.2 |
| 20260506042022 | 10 | 0 | 4.8 | 19.3 | 0.00 | 2.01 | 1.19 | 64 | 1016.1 |
| 20260506041536 | 10 | 337 | 8.0 | 20.9 | 0.00 | 2.01 | 1.19 | 63 | 1016.0 |
| 20260506041024 | 10 | 338 | 4.8 | 20.9 | 0.00 | 2.01 | 1.19 | 63 | 1015.8 |
| 20260506040525 | 10 | 360 | 1.6 | 16.1 | 0.00 | 2.01 | 1.19 | 63 | 1015.8 |
| 20260506040036 | 10 | 19 | 3.2 | 22.5 | 0.00 | 2.01 | 1.19 | 63 | 1015.8 |
| 20260506035528 | 10 | 15 | 4.8 | 22.5 | 0.00 | 2.01 | 1.19 | 63 | 1016.0 |
| 20260506035025 | 10 | 348 | 4.8 | 24.1 | 0.00 | 2.01 | 1.19 | 62 | 1015.8 |
| 20260506034538 | 10 | 360 | 9.7 | 24.1 | 0.00 | 2.01 | 1.19 | 63 | 1015.8 |
| 20260506034026 | 10 | 272 | 0.0 | 20.9 | 0.00 | 2.01 | 1.19 | 66 | 1015.5 |
| 20260506033525 | 10 | 267 | 3.2 | 20.9 | 0.00 | 2.01 | 1.19 | 68 | 1015.2 |
| 20260506033039 | 10 | 0 | 1.6 | 8.0 | 0.00 | 2.01 | 1.19 | 69 | 1014.9 |
| 20260506032525 | 10 | 0 | 0.0 | 4.8 | 0.00 | 2.01 | 1.19 | 70 | 1014.7 |
| 20260506032026 | 10 | 0 | 0.0 | 0.0 | 0.00 | 2.01 | 1.19 | 70 | 1014.6 |